Location: Pisa
(43.7170°N, 10.3830°E)
Time: 14:42:36
(UTC+02:00)

ISS - Pass Details

Date: 19 May 2021
Orbit: 417 x 422 km, 51.6° (Epoch: 18 June)

Event Time Altitude Azimuth Distance (km) Brightness Sun altitude
Rises 02:06:34 0° 303° (WNW) 2,372 0.3 -25.4°
Reaches altitude 10° 02:08:43 10° 308° (NW) 1,507 -0.7 -25.3°
Enters shadow 02:09:01 12° 310° (NW) 1,384 -0.9 -25.3°
